RPA5596 KDCA-KLGA

Flight info

Callsign RPA5596
Flight time 0h 42m
Altitude 21000
Route DOCTR5 AGARD SPEAK PROUD2
Aircraft E170/M-SDE3GILORVW/S

Departure

Time 2026-05-03 21:34
Airport Ronald Reagan Washington National Airport (KDCA)

Arrival

Time 2026-05-03 22:17
Airport LaGuardia Airport (KLGA)
Time Latitude Longitude Altitude Speed Heading
2026-05-03 21:09 38.85267 -77.04069 22 ft 0 kts 224°
2026-05-03 21:25 38.85271 -77.04064 22 ft 2 kts 224°
2026-05-03 21:25 38.85285 -77.04047 22 ft 2 kts 224°
2026-05-03 21:25 38.85300 -77.04031 22 ft 3 kts 210°
2026-05-03 21:25 38.85318 -77.04025 23 ft 3 kts 174°
2026-05-03 21:26 38.85331 -77.04036 22 ft 3 kts 106°
2026-05-03 21:26 38.85330 -77.04050 23 ft 1 kts 72°
2026-05-03 21:26 38.85326 -77.04069 22 ft 2 kts 72°
2026-05-03 21:26 38.85325 -77.04072 26 ft 0 kts 72°
2026-05-03 21:29 38.85329 -77.04054 23 ft 6 kts 72°
2026-05-03 21:30 38.85342 -77.03962 22 ft 14 kts 108°
2026-05-03 21:30 38.85241 -77.03924 21 ft 19 kts 176°
2026-05-03 21:30 38.85092 -77.03912 22 ft 21 kts 174°
2026-05-03 21:30 38.84951 -77.03897 21 ft 20 kts 176°
2026-05-03 21:31 38.84805 -77.03881 25 ft 22 kts 175°
2026-05-03 21:31 38.84670 -77.03867 22 ft 15 kts 175°
2026-05-03 21:31 38.84553 -77.03856 22 ft 19 kts 176°
2026-05-03 21:31 38.84442 -77.03846 22 ft 13 kts 175°
2026-05-03 21:32 38.84352 -77.03837 22 ft 11 kts 173°
2026-05-03 21:32 38.84304 -77.03823 22 ft 4 kts 148°
2026-05-03 21:32 38.84285 -77.03795 22 ft 0 kts 115°
2026-05-03 21:33 38.84284 -77.03792 22 ft 2 kts 115°
2026-05-03 21:33 38.84273 -77.03763 22 ft 6 kts 115°
2026-05-03 21:33 38.84268 -77.03703 21 ft 8 kts 57°
2026-05-03 21:33 38.84294 -77.03688 21 ft 0 kts 354°
2026-05-03 21:34 38.84364 -77.03696 21 ft 42 kts 355°
2026-05-03 21:34 38.84955 -77.03759 24 ft 125 kts 354°
2026-05-03 21:34 38.86020 -77.03831 380 ft 166 kts 354°
2026-05-03 21:34 38.87159 -77.04052 1501 ft 168 kts 341°
2026-05-03 21:35 38.88169 -77.04700 2417 ft 158 kts 322°
2026-05-03 21:35 38.88958 -77.05733 2950 ft 169 kts 307°
2026-05-03 21:35 38.89568 -77.07044 3547 ft 172 kts 301°
2026-05-03 21:35 38.90193 -77.08463 3842 ft 195 kts 301°
2026-05-03 21:36 38.90882 -77.09976 4557 ft 198 kts 304°
2026-05-03 21:36 38.91794 -77.11359 5085 ft 209 kts 322°
2026-05-03 21:36 38.93082 -77.12297 5667 ft 217 kts 335°
2026-05-03 21:36 38.94465 -77.13068 6477 ft 214 kts 334°
2026-05-03 21:37 38.95764 -77.14055 7054 ft 220 kts 324°
2026-05-03 21:37 38.97068 -77.15076 7532 ft 229 kts 339°
2026-05-03 21:37 38.98696 -77.15329 7802 ft 250 kts
2026-05-03 21:37 39.00318 -77.14359 7837 ft 269 kts 37°
2026-05-03 21:38 39.01612 -77.12683 8553 ft 264 kts 38°
2026-05-03 21:38 39.02920 -77.10987 9080 ft 273 kts 45°
2026-05-03 21:38 39.03779 -77.08742 9528 ft 294 kts 72°
2026-05-03 21:38 39.03876 -77.06041 10033 ft 307 kts 88°
2026-05-03 21:39 39.03703 -77.03241 10277 ft 324 kts 92°
2026-05-03 21:39 39.03438 -77.00287 10497 ft 338 kts 93°
2026-05-03 21:39 39.03178 -76.97262 10980 ft 340 kts 92°
2026-05-03 21:39 39.02957 -76.94222 11504 ft 343 kts 91°
2026-05-03 21:40 39.02759 -76.91147 12059 ft 346 kts 91°
2026-05-03 21:40 39.02567 -76.88089 12517 ft 353 kts 91°
2026-05-03 21:40 39.02357 -76.84937 13119 ft 356 kts 92°
2026-05-03 21:40 39.02130 -76.81745 13738 ft 360 kts 92°
2026-05-03 21:41 39.01892 -76.78518 14298 ft 364 kts 93°
2026-05-03 21:41 39.01645 -76.75272 14882 ft 367 kts 93°
2026-05-03 21:41 39.01392 -76.71992 15464 ft 370 kts 93°
2026-05-03 21:41 39.01131 -76.68687 16059 ft 373 kts 93°
2026-05-03 21:42 39.00862 -76.65351 16659 ft 376 kts 93°
2026-05-03 21:42 39.00739 -76.62000 17232 ft 378 kts 86°
2026-05-03 21:42 39.00813 -76.58606 17842 ft 381 kts 84°
2026-05-03 21:42 39.00904 -76.55190 18464 ft 384 kts 84°
2026-05-03 21:43 39.00955 -76.51728 19016 ft 388 kts 85°
2026-05-03 21:43 39.00974 -76.48252 19534 ft 392 kts 86°
2026-05-03 21:43 39.00978 -76.44765 20093 ft 396 kts 87°
2026-05-03 21:43 39.01019 -76.41217 20722 ft 396 kts 82°
2026-05-03 21:44 39.01297 -76.37644 21317 ft 398 kts 80°
2026-05-03 21:44 39.01647 -76.34140 21854 ft 401 kts 79°
2026-05-03 21:44 39.02026 -76.30570 22436 ft 405 kts 79°
2026-05-03 21:44 39.02397 -76.26970 23030 ft 408 kts 79°
2026-05-03 21:45 39.02760 -76.23336 23639 ft 412 kts 79°
2026-05-03 21:45 39.03119 -76.19657 24130 ft 416 kts 80°
2026-05-03 21:45 39.03478 -76.15951 24618 ft 420 kts 80°
2026-05-03 21:45 39.03842 -76.12204 25046 ft 426 kts 81°
2026-05-03 21:46 39.04212 -76.08386 25512 ft 430 kts 81°
2026-05-03 21:46 39.04559 -76.04545 25975 ft 434 kts 83°
2026-05-03 21:46 39.04753 -76.00646 26430 ft 439 kts 86°
2026-05-03 21:46 39.04875 -75.96704 26858 ft 443 kts 86°
2026-05-03 21:47 39.05009 -75.92735 27275 ft 447 kts 86°
2026-05-03 21:47 39.05171 -75.88724 27671 ft 451 kts 85°
2026-05-03 21:47 39.05350 -75.84732 28071 ft 454 kts 85°
2026-05-03 21:47 39.05533 -75.80663 28460 ft 457 kts 85°
2026-05-03 21:48 39.05850 -75.76567 28725 ft 462 kts 77°
2026-05-03 21:48 39.06954 -75.72713 29103 ft 456 kts 55°
2026-05-03 21:48 39.08877 -75.69487 29226 ft 459 kts 42°
2026-05-03 21:48 39.11176 -75.66588 29253 ft 468 kts 38°
2026-05-03 21:49 39.13607 -75.63717 28927 ft 479 kts 38°
2026-05-03 21:49 39.16062 -75.60754 29065 ft 486 kts 39°
2026-05-03 21:49 39.20857 -75.54614 29020 ft 474 kts 41°
2026-05-03 21:50 39.23150 -75.51707 28513 ft 455 kts 34°
2026-05-03 21:50 39.25629 -75.49318 28327 ft 431 kts 29°
2026-05-03 21:50 39.30560 -75.45020 28345 ft 434 kts 28°
2026-05-03 21:51 39.33071 -75.42840 27502 ft 435 kts 28°
2026-05-03 21:51 39.35555 -75.40644 26187 ft 428 kts 30°
2026-05-03 21:51 39.37979 -75.38476 24822 ft 420 kts 30°
2026-05-03 21:51 39.40345 -75.36357 24418 ft 406 kts 30°
2026-05-03 21:52 39.42649 -75.34294 23827 ft 400 kts 30°
2026-05-03 21:52 39.44904 -75.32268 23279 ft 392 kts 30°
2026-05-03 21:52 39.47112 -75.30292 22844 ft 387 kts 29°
2026-05-03 21:52 39.49336 -75.28316 22285 ft 390 kts 29°
2026-05-03 21:53 39.51571 -75.26327 22032 ft 387 kts 30°
2026-05-03 21:53 39.53764 -75.24312 21703 ft 387 kts 31°
2026-05-03 21:53 39.55933 -75.22251 21589 ft 384 kts 31°
2026-05-03 21:53 39.58092 -75.20196 21369 ft 384 kts 31°
2026-05-03 21:54 39.60245 -75.18159 21192 ft 384 kts 31°
2026-05-03 21:54 39.62381 -75.16152 21049 ft 381 kts 31°
2026-05-03 21:54 39.64562 -75.14109 20813 ft 381 kts 31°
2026-05-03 21:54 39.66674 -75.12130 20638 ft 381 kts 31°
2026-05-03 21:55 39.68819 -75.10130 20202 ft 378 kts 30°
2026-05-03 21:55 39.70977 -75.08228 19846 ft 373 kts 28°
2026-05-03 21:55 39.72595 -75.06871 19404 ft 372 kts 27°
2026-05-03 21:55 39.74766 -75.05073 18909 ft 367 kts 27°
2026-05-03 21:56 39.76903 -75.03276 18430 ft 362 kts 27°
2026-05-03 21:56 39.78993 -75.01480 18001 ft 357 kts 28°
2026-05-03 21:56 39.81057 -74.99685 17535 ft 359 kts 28°
2026-05-03 21:56 39.83132 -74.97884 17098 ft 356 kts 28°
2026-05-03 21:57 39.85191 -74.96100 16574 ft 354 kts 28°
2026-05-03 21:57 39.87212 -74.94314 16148 ft 351 kts 29°
2026-05-03 21:57 39.89210 -74.92488 15653 ft 349 kts 30°
2026-05-03 21:57 39.91173 -74.90681 15215 ft 345 kts 29°
2026-05-03 21:58 39.93006 -74.88639 14747 ft 346 kts 40°
2026-05-03 21:58 39.94648 -74.86395 14282 ft 340 kts 42°
2026-05-03 21:58 39.96201 -74.84140 13861 ft 333 kts 43°
2026-05-03 21:58 39.97720 -74.81896 13388 ft 326 kts 43°
2026-05-03 21:59 39.99177 -74.79765 12992 ft 319 kts 42°
2026-05-03 21:59 40.00652 -74.77647 12573 ft 312 kts 42°
2026-05-03 21:59 40.02110 -74.75569 12135 ft 307 kts 41°
2026-05-03 21:59 40.03057 -74.74223 11897 ft 302 kts 41°
2026-05-03 22:00 40.04466 -74.72213 11462 ft 298 kts 41°
2026-05-03 22:00 40.05845 -74.70236 11093 ft 294 kts 41°
2026-05-03 22:00 40.07224 -74.68251 10687 ft 292 kts 41°
2026-05-03 22:00 40.09027 -74.65658 10305 ft 287 kts 41°
2026-05-03 22:01 40.09926 -74.64363 10239 ft 287 kts 41°
2026-05-03 22:01 40.11276 -74.62422 10088 ft 290 kts 41°
2026-05-03 22:01 40.12626 -74.60481 10066 ft 286 kts 41°
2026-05-03 22:01 40.13979 -74.58530 9938 ft 289 kts 41°
2026-05-03 22:02 40.15327 -74.56589 9775 ft 288 kts 41°
2026-05-03 22:02 40.16668 -74.54658 9579 ft 287 kts 42°
2026-05-03 22:02 40.18007 -74.52724 9398 ft 285 kts 42°
2026-05-03 22:02 40.19314 -74.50837 9207 ft 283 kts 42°
2026-05-03 22:03 40.20642 -74.48921 9002 ft 282 kts 41°
2026-05-03 22:03 40.22009 -74.47102 8811 ft 280 kts 38°
2026-05-03 22:03 40.23438 -74.45360 8623 ft 279 kts 37°
2026-05-03 22:03 40.24869 -74.43643 8428 ft 279 kts 37°
2026-05-03 22:04 40.26277 -74.41916 8254 ft 277 kts 38°
2026-05-03 22:04 40.27666 -74.40162 8055 ft 276 kts 39°
2026-05-03 22:04 40.29018 -74.38432 8109 ft 272 kts 39°
2026-05-03 22:04 40.30382 -74.36693 8106 ft 273 kts 39°
2026-05-03 22:05 40.31755 -74.34951 8043 ft 276 kts 39°
2026-05-03 22:05 40.33135 -74.33206 8025 ft 277 kts 39°
2026-05-03 22:05 40.34526 -74.31448 7805 ft 277 kts 39°
2026-05-03 22:05 40.35888 -74.29721 7631 ft 274 kts 39°
2026-05-03 22:06 40.37256 -74.27984 7444 ft 273 kts 39°
2026-05-03 22:06 40.38606 -74.26272 7257 ft 266 kts 39°
2026-05-03 22:06 40.39910 -74.24607 7071 ft 255 kts 39°
2026-05-03 22:06 40.41154 -74.23018 6987 ft 243 kts 39°
2026-05-03 22:07 40.42332 -74.21518 6936 ft 230 kts 38°
2026-05-03 22:07 40.43450 -74.20101 7060 ft 217 kts 38°
2026-05-03 22:07 40.44569 -74.18690 7189 ft 229 kts 38°
2026-05-03 22:07 40.45721 -74.17236 7089 ft 232 kts 38°
2026-05-03 22:08 40.46868 -74.15769 7090 ft 225 kts 39°
2026-05-03 22:08 40.47986 -74.14330 7087 ft 224 kts 38°
2026-05-03 22:08 40.49094 -74.12918 7096 ft 226 kts 38°
2026-05-03 22:08 40.50238 -74.11464 7155 ft 226 kts 38°
2026-05-03 22:09 40.51356 -74.10052 7118 ft 229 kts 38°
2026-05-03 22:09 40.52455 -74.08784 6692 ft 224 kts 32°
2026-05-03 22:09 40.53542 -74.07834 6436 ft 209 kts 26°
2026-05-03 22:10 40.56081 -74.05960 5932 ft 216 kts 24°
2026-05-03 22:10 40.57368 -74.04939 5618 ft 216 kts 27°
2026-05-03 22:10 40.58338 -74.04109 5430 ft 215 kts 28°
2026-05-03 22:10 40.59582 -74.03009 5109 ft 213 kts 28°
2026-05-03 22:11 40.60744 -74.01961 4836 ft 192 kts 28°
2026-05-03 22:11 40.61808 -74.01015 4624 ft 180 kts 27°
2026-05-03 22:11 40.62858 -74.00113 4441 ft 181 kts 26°
2026-05-03 22:11 40.63910 -73.99220 4107 ft 180 kts 27°
2026-05-03 22:12 40.64949 -73.98322 3898 ft 177 kts 26°
2026-05-03 22:12 40.65984 -73.97418 3691 ft 180 kts 27°
2026-05-03 22:12 40.67024 -73.96461 3389 ft 183 kts 28°
2026-05-03 22:12 40.68028 -73.95545 3200 ft 172 kts 27°
2026-05-03 22:13 40.69025 -73.94696 2919 ft 171 kts 26°
2026-05-03 22:13 40.69932 -73.93939 2751 ft 171 kts 27°
2026-05-03 22:13 40.70830 -73.92948 2546 ft 168 kts 39°
2026-05-03 22:13 40.71584 -73.91760 2270 ft 167 kts 46°
2026-05-03 22:14 40.72243 -73.90535 2120 ft 166 kts 52°
2026-05-03 22:14 40.72652 -73.89057 1930 ft 177 kts 73°
2026-05-03 22:14 40.72757 -73.87476 1626 ft 173 kts 82°
2026-05-03 22:14 40.72789 -73.85936 1266 ft 162 kts 82°
2026-05-03 22:15 40.72978 -73.84552 1005 ft 146 kts 57°
2026-05-03 22:15 40.73627 -73.83651 897 ft 129 kts 22°
2026-05-03 22:15 40.74483 -73.83197 873 ft 136 kts
2026-05-03 22:15 40.75412 -73.83232 654 ft 132 kts 345°
2026-05-03 22:16 40.76156 -73.83734 434 ft 118 kts 316°
2026-05-03 22:16 40.76670 -73.84609 235 ft 122 kts 306°
2026-05-03 22:16 40.77095 -73.85481 104 ft 129 kts 305°
2026-05-03 22:16 40.77505 -73.86349 14 ft 111 kts 305°
2026-05-03 22:17 40.77851 -73.87056 12 ft 64 kts 302°
2026-05-03 22:17 40.77975 -73.87344 12 ft 24 kts 276°
2026-05-03 22:17 40.77941 -73.87421 13 ft 16 kts 214°